Weather History for Burlington, CO

Change the Weather History Date:

Saturday, August 10, 2013

  Actual Average Record
Temperature  
Mean Temperature 68 °F 73 °F  
Max Temperature 82 °F 87 °F 102 °F (1962)
Min Temperature 54 °F 60 °F 47 °F (1960)
Cooling Degree Days 4    
Growing Degree Days 18 (Base 50)    
Moisture  
Dew Point 56 °F    
Average Humidity 67    
Maximum Humidity 93    
Minimum Humidity 39    
Precipitation  
Precipitation 0.00 in 0.08 in 2.12 in (1979)
Month to date precipitation 0.29 0.78  
Year to date precipitation 8.82 12.52  
Sea Level Pressure  
Sea Level Pressure 30.09 in    
Wind  
Wind Speed 12 mph (South)    
Max Wind Speed 21 mph    
Max Gust Speed 25 mph    
Visibility 10 miles    
Events      
T = Trace of Precipitation, MM = Missing Value Source: NWS Daily Summary

Daily Weather History Graph

Daily Weather History Graph

Search for Another Location

Airport:

Trip Planner

Search our weather history database for the weather conditions in past years. The results will help you decide how hot, cold, wet, or windy it might be!

Date:

Astronomy

Aug. 10, 2013 Rise Set
Actual Time 5:57 AM MDT 7:50 PM MDT
Civil Twilight 5:28 AM MDT 8:19 PM MDT
Nautical Twilight 4:53 AM MDT 8:54 PM MDT
Astronomical Twilight 4:15 AM MDT 9:32 PM MDT
Moon 9:44 AM MDT (8/10) 9:35 PM MDT (8/10)
Length of Visible Light 14h 50m
Length of Day
13h 52m
Waxing Crescent, 14% of the Moon is Illuminated
Aug 10
Waxing Crescent
Aug 14
First Quarter
Aug 20
Full
Aug 28
Last Quarter
Sep 5
New

Hourly Weather History & Observations

Time (MDT) Temp. Heat Index Dew Point Humidity Pressure Visibility Wind Dir Wind Speed Gust Speed Precip Events Conditions
12:53 AM 59.0 °F - 55.9 °F 90% 30.14 in 10.0 mi South 10.4 mph - N/A   Clear
1:53 AM 57.9 °F - 55.0 °F 90% 30.15 in 10.0 mi SSW 8.1 mph - N/A   Clear
2:53 AM 55.9 °F - 54.0 °F 93% 30.14 in 10.0 mi SSW 8.1 mph - N/A   Clear
3:53 AM 57.0 °F - 53.1 °F 87% 30.14 in 10.0 mi SW 10.4 mph - N/A   Clear
4:53 AM 55.9 °F - 52.0 °F 87% 30.14 in 10.0 mi SW 8.1 mph - N/A   Clear
5:53 AM 55.9 °F - 54.0 °F 93% 30.14 in 10.0 mi SSW 8.1 mph - N/A   Clear
6:53 AM 57.9 °F - 55.0 °F 90% 30.15 in 9.0 mi SSW 8.1 mph - N/A   Clear
7:53 AM 64.9 °F - 55.0 °F 70% 30.14 in 10.0 mi SSW 9.2 mph - N/A   Clear
8:53 AM 69.1 °F - 53.1 °F 57% 30.15 in 10.0 mi South 12.7 mph - N/A   Clear
9:53 AM 72.0 °F - 53.1 °F 51% 30.14 in 10.0 mi South 17.3 mph - N/A   Clear
10:53 AM 73.9 °F - 55.0 °F 52% 30.14 in 10.0 mi South 15.0 mph 25.3 mph N/A   Clear
11:53 AM 75.9 °F - 55.0 °F 48% 30.12 in 10.0 mi South 15.0 mph 21.9 mph N/A   Clear
12:53 PM 78.1 °F - 55.9 °F 46% 30.09 in 10.0 mi South 17.3 mph 21.9 mph N/A   Clear
1:53 PM 79.0 °F - 55.0 °F 44% 30.08 in 10.0 mi SSE 12.7 mph 21.9 mph N/A   Clear
2:53 PM 82.0 °F 81.4 °F 55.0 °F 39% 30.06 in 10.0 mi South 15.0 mph 23.0 mph N/A   Partly Cloudy
3:53 PM 82.0 °F 81.4 °F 55.0 °F 39% 30.03 in 10.0 mi SE 18.4 mph 24.2 mph N/A   Clear
4:53 PM 81.0 °F 80.8 °F 55.9 °F 42% 30.03 in 10.0 mi SSE 20.7 mph 25.3 mph N/A   Clear
5:53 PM 78.1 °F - 57.0 °F 48% 30.02 in 10.0 mi SSE 19.6 mph 25.3 mph N/A   Clear
6:53 PM 75.0 °F - 57.9 °F 55% 30.01 in 10.0 mi SSE 16.1 mph 24.2 mph N/A   Clear
7:53 PM 71.1 °F - 59.0 °F 66% 30.02 in 10.0 mi SSE 12.7 mph - N/A   Clear
8:53 PM 66.9 °F - 59.0 °F 76% 30.05 in 10.0 mi SSE 10.4 mph - N/A   Clear
9:53 PM 64.9 °F - 59.0 °F 81% 30.06 in 10.0 mi SSE 8.1 mph - N/A   Clear
10:53 PM 64.9 °F - 59.0 °F 81% 30.06 in 10.0 mi SSE 10.4 mph - N/A   Clear
11:53 PM 64.0 °F - 60.1 °F 87% 30.05 in 10.0 mi South 10.4 mph - N/A   Clear